User: anonymous   Login
Location: Unspecified
(0.0000°N, 0.0000°E)
Time: 17:25:27
(UTC+00:00)
Language:

Resurs 1-4 Rocket - Orbit

View from above orbital plane
View from above orbital plane
View from above satellite
View from above satellite

Ground track
Ground track

The orbit data is extracted from the following two-line orbital elements,

1 25400U 98043G   19292.47726244 -.00000009  00000-0  14588-4 0  9994
2 25400  98.5809 228.1790 0009308 326.4363  33.6227 14.25444678106777
Epoch (UTC): 19 October 2019 11:27:15
Eccentricity: 0.0009308
inclination: 98.5809°
perigee height: 800 km
apogee height: 813 km
right ascension of ascending node: 228.1790°
argument of perigee: 326.4363°
revolutions per day: 14.25444678
mean anomaly at epoch: 33.6227°
orbit number at epoch: 10677

The dashed part of the orbit path shows where the satellite is in the earth's shadow,  

DLR